OAL275 SANU-SGAS

Flight info

Callsign OAL275
Flight time N/A
Altitude 36000
Route DCT KIBUN DCT JUA UW24 CBA UL531 ERE UW14 BITUS UP526 SAMGU DCT
Aircraft B738/M-SDE2E3FGHIRWXY/LB1

Departure

Time N/A
Airport Domingo Faustino Sarmiento Airport (SANU)

Arrival

Time 2026-04-24 20:21
Airport Silvio Pettirossi International Airport (SGAS)
Time Latitude Longitude Altitude Speed Heading
2026-04-24 18:54 -31.39679 -65.37220 34041 ft 506 kts 84°
2026-04-24 18:55 -31.39125 -65.28967 34320 ft 510 kts 83°
2026-04-24 18:55 -31.38845 -65.24813 34467 ft 512 kts 83°
2026-04-24 18:55 -31.38561 -65.20660 34622 ft 514 kts 83°
2026-04-24 18:56 -31.38272 -65.16465 34675 ft 519 kts 83°
2026-04-24 18:56 -31.37680 -65.07949 34706 ft 531 kts 83°
2026-04-24 18:57 -31.37072 -64.99248 34753 ft 542 kts 83°
2026-04-24 18:57 -31.36452 -64.90449 34861 ft 551 kts 83°
2026-04-24 18:58 -31.35808 -64.81394 34956 ft 559 kts 83°
2026-04-24 18:58 -31.35152 -64.72273 35068 ft 565 kts 83°
2026-04-24 18:58 -31.34821 -64.67696 35208 ft 566 kts 83°
2026-04-24 18:59 -31.34600 -64.64650 35302 ft 566 kts 83°
2026-04-24 18:59 -31.34156 -64.58566 35496 ft 567 kts 83°
2026-04-24 18:59 -31.33818 -64.53967 35645 ft 568 kts 83°
2026-04-24 18:59 -31.33477 -64.49361 35783 ft 568 kts 83°
2026-04-24 19:00 -31.33135 -64.44754 35936 ft 569 kts 83°
2026-04-24 19:00 -31.32442 -64.35504 35967 ft 573 kts 83°
2026-04-24 19:01 -31.31814 -64.27712 36015 ft 575 kts 78°
2026-04-24 19:01 -31.30956 -64.23155 36024 ft 572 kts 67°
2026-04-24 19:01 -31.29596 -64.18809 36028 ft 567 kts 59°
2026-04-24 19:02 -31.25697 -64.11043 36029 ft 552 kts 43°
2026-04-24 19:02 -31.21071 -64.03814 36013 ft 557 kts 43°
2026-04-24 19:03 -31.16434 -63.96509 36018 ft 563 kts 43°
2026-04-24 19:03 -31.11809 -63.89104 36018 ft 566 kts 44°
2026-04-24 19:04 -31.07185 -63.81672 36189 ft 565 kts 43°
2026-04-24 19:04 -31.02545 -63.74245 36368 ft 566 kts 43°
2026-04-24 19:05 -30.97897 -63.66830 36558 ft 567 kts 43°
2026-04-24 19:05 -30.93237 -63.59406 36739 ft 568 kts 43°
2026-04-24 19:06 -30.88633 -63.51997 36933 ft 568 kts 44°
2026-04-24 19:06 -30.84085 -63.44469 37020 ft 569 kts 44°
2026-04-24 19:07 -30.79507 -63.36923 37032 ft 571 kts 43°
2026-04-24 19:07 -30.74888 -63.29411 37030 ft 571 kts 43°
2026-04-24 19:08 -30.70201 -63.21956 37033 ft 571 kts 42°
2026-04-24 19:08 -30.65505 -63.14512 37028 ft 571 kts 43°
2026-04-24 19:09 -30.60821 -63.07073 37031 ft 571 kts 43°
2026-04-24 19:09 -30.56154 -62.99649 37029 ft 569 kts 43°
2026-04-24 19:10 -30.51523 -62.92300 37025 ft 567 kts 43°
2026-04-24 19:10 -30.46857 -62.84920 37027 ft 566 kts 43°
2026-04-24 19:11 -30.42208 -62.77583 37026 ft 564 kts 43°
2026-04-24 19:11 -30.37551 -62.70281 37031 ft 563 kts 42°
2026-04-24 19:12 -30.32897 -62.62985 37027 ft 562 kts 42°
2026-04-24 19:12 -30.28237 -62.55727 37026 ft 561 kts 42°
2026-04-24 19:13 -30.24368 -62.49715 37033 ft 560 kts 42°
2026-04-24 19:13 -30.18935 -62.41283 37031 ft 559 kts 42°
2026-04-24 19:14 -30.14285 -62.34076 37030 ft 559 kts 42°
2026-04-24 19:14 -30.09640 -62.26890 37027 ft 558 kts 42°
2026-04-24 19:15 -30.04994 -62.19715 37029 ft 557 kts 42°
2026-04-24 19:15 -30.00358 -62.12568 37029 ft 556 kts 42°
2026-04-24 19:16 -29.93432 -62.01911 37029 ft 555 kts 42°
2026-04-24 19:16 -29.88842 -61.94747 37024 ft 560 kts 47°
2026-04-24 19:17 -29.86884 -61.90823 37022 ft 571 kts 55°
2026-04-24 19:17 -29.85378 -61.86537 37030 ft 582 kts 64°
2026-04-24 19:17 -29.82927 -61.77641 37031 ft 583 kts 66°
2026-04-24 19:18 -29.80490 -61.68719 37032 ft 583 kts 65°
2026-04-24 19:18 -29.77976 -61.59837 37028 ft 582 kts 64°
2026-04-24 19:19 -29.75425 -61.50995 37038 ft 582 kts 64°
2026-04-24 19:19 -29.72869 -61.42168 37034 ft 582 kts 64°
2026-04-24 19:20 -29.70330 -61.33399 37037 ft 581 kts 64°
2026-04-24 19:20 -29.67773 -61.24581 37039 ft 581 kts 64°
2026-04-24 19:21 -29.65213 -61.15780 37036 ft 581 kts 64°
2026-04-24 19:21 -29.62644 -61.06972 37037 ft 580 kts 64°
2026-04-24 19:22 -29.60075 -60.98187 37038 ft 580 kts 64°
2026-04-24 19:22 -29.57498 -60.89399 37035 ft 580 kts 64°
2026-04-24 19:23 -29.54916 -60.80624 37035 ft 579 kts 64°
2026-04-24 19:23 -29.52293 -60.71884 37037 ft 578 kts 64°
2026-04-24 19:24 -29.49657 -60.63165 37037 ft 578 kts 64°
2026-04-24 19:24 -29.47037 -60.54495 37039 ft 578 kts 64°
2026-04-24 19:25 -29.44400 -60.45777 37035 ft 577 kts 64°
2026-04-24 19:25 -29.41763 -60.37073 37040 ft 577 kts 64°
2026-04-24 19:26 -29.39148 -60.28369 37040 ft 577 kts 64°
2026-04-24 19:26 -29.36535 -60.19672 37036 ft 577 kts 64°
2026-04-24 19:27 -29.33915 -60.10985 37041 ft 577 kts 64°
2026-04-24 19:27 -29.31300 -60.02345 37034 ft 577 kts 64°
2026-04-24 19:28 -29.28666 -59.93665 37043 ft 576 kts 64°
2026-04-24 19:28 -29.26028 -59.84996 37027 ft 576 kts 64°
2026-04-24 19:29 -29.22070 -59.72023 37020 ft 576 kts 64°
2026-04-24 19:30 -29.18971 -59.63669 37052 ft 563 kts 54°
2026-04-24 19:30 -29.15201 -59.55841 37035 ft 561 kts 52°
2026-04-24 19:31 -29.11398 -59.48031 37038 ft 561 kts 53°
2026-04-24 19:31 -29.07655 -59.40189 37030 ft 562 kts 53°
2026-04-24 19:32 -29.03938 -59.32335 37037 ft 561 kts 53°
2026-04-24 19:32 -29.00219 -59.24490 37034 ft 561 kts 53°
2026-04-24 19:33 -28.96520 -59.16716 37034 ft 560 kts 53°
2026-04-24 19:33 -28.92797 -59.08911 37034 ft 560 kts 53°
2026-04-24 19:34 -28.89069 -59.01107 37033 ft 559 kts 53°
2026-04-24 19:34 -28.85348 -58.93326 37033 ft 559 kts 53°
2026-04-24 19:35 -28.81667 -58.85526 37029 ft 559 kts 54°
2026-04-24 19:35 -28.77998 -58.77716 37033 ft 558 kts 54°
2026-04-24 19:36 -28.74326 -58.69928 37026 ft 557 kts 54°
2026-04-24 19:36 -28.70650 -58.62159 37025 ft 557 kts 54°
2026-04-24 19:37 -28.66972 -58.54404 37027 ft 556 kts 54°
2026-04-24 19:37 -28.63287 -58.46646 37032 ft 556 kts 54°
2026-04-24 19:38 -28.59573 -58.38990 37025 ft 556 kts 53°
2026-04-24 19:38 -28.55780 -58.31269 37020 ft 554 kts 53°
2026-04-24 19:39 -28.52046 -58.23662 37021 ft 554 kts 53°
2026-04-24 19:39 -28.48293 -58.16014 37031 ft 553 kts 53°
2026-04-24 19:40 -28.44542 -58.08378 37028 ft 553 kts 53°
2026-04-24 19:40 -28.40795 -58.00764 37025 ft 552 kts 53°
2026-04-24 19:41 -28.37043 -57.93154 37020 ft 552 kts 53°
2026-04-24 19:41 -28.33293 -57.85563 37025 ft 551 kts 53°
2026-04-24 19:42 -28.29542 -57.77982 37023 ft 550 kts 53°
2026-04-24 19:42 -28.25788 -57.70425 37020 ft 549 kts 53°
2026-04-24 19:43 -28.21564 -57.63444 37011 ft 523 kts 32°
2026-04-24 19:43 -28.18682 -57.61091 37018 ft 500 kts 17°
2026-04-24 19:43 -28.15560 -57.59503 37031 ft 482 kts
2026-04-24 19:43 -28.12369 -57.58628 37009 ft 463 kts 355°
2026-04-24 19:44 -28.09270 -57.58440 37036 ft 452 kts 350°
2026-04-24 19:44 -28.02979 -57.58255 37014 ft 453 kts 351°
2026-04-24 19:45 -27.96663 -57.58030 37007 ft 454 kts 351°
2026-04-24 19:45 -27.90385 -57.57775 37008 ft 454 kts 351°
2026-04-24 19:46 -27.84023 -57.57508 37008 ft 455 kts 351°
2026-04-24 19:46 -27.77696 -57.57244 37005 ft 455 kts 352°
2026-04-24 19:47 -27.71405 -57.56982 37007 ft 455 kts 352°
2026-04-24 19:47 -27.65116 -57.56715 36891 ft 446 kts 352°
2026-04-24 19:47 -27.62035 -57.56583 36502 ft 439 kts 352°
2026-04-24 19:48 -27.59006 -57.56454 36187 ft 431 kts 352°
2026-04-24 19:48 -27.56040 -57.56330 35856 ft 424 kts 352°
2026-04-24 19:48 -27.50193 -57.56096 35236 ft 419 kts 352°
2026-04-24 19:49 -27.45356 -57.55902 34736 ft 418 kts 352°
2026-04-24 19:49 -27.39481 -57.55689 34163 ft 427 kts 352°
2026-04-24 19:50 -27.30521 -57.55451 33175 ft 430 kts 352°
2026-04-24 19:50 -27.27529 -57.55370 33032 ft 431 kts 352°
2026-04-24 19:51 -27.18498 -57.55120 32993 ft 433 kts 352°
2026-04-24 19:52 -27.09474 -57.54866 32983 ft 432 kts 352°
2026-04-24 19:52 -27.03472 -57.54698 32986 ft 431 kts 352°
2026-04-24 19:53 -26.97487 -57.54536 32503 ft 440 kts 353°
2026-04-24 19:53 -26.91374 -57.54364 31293 ft 437 kts 353°
2026-04-24 19:54 -26.88343 -57.54277 30707 ft 434 kts 352°
2026-04-24 19:54 -26.85331 -57.54192 30129 ft 430 kts 352°
2026-04-24 19:54 -26.82355 -57.54134 29478 ft 427 kts 352°
2026-04-24 19:54 -26.79395 -57.54098 28822 ft 423 kts 352°
2026-04-24 19:55 -26.77453 -57.54079 28395 ft 419 kts 352°
2026-04-24 19:55 -26.73575 -57.54041 27560 ft 414 kts 352°
2026-04-24 19:55 -26.70693 -57.54013 26965 ft 417 kts 352°
2026-04-24 19:55 -26.67761 -57.53986 26373 ft 422 kts 352°
2026-04-24 19:56 -26.64804 -57.53955 25799 ft 426 kts 352°
2026-04-24 19:56 -26.61843 -57.53919 25223 ft 424 kts 353°
2026-04-24 19:56 -26.58942 -57.53880 24667 ft 421 kts 353°
2026-04-24 19:56 -26.56033 -57.53842 24239 ft 415 kts 353°
2026-04-24 19:57 -26.53153 -57.53807 24131 ft 415 kts 353°
2026-04-24 19:57 -26.50270 -57.53774 23966 ft 414 kts 353°
2026-04-24 19:57 -26.47397 -57.53742 23779 ft 411 kts 353°
2026-04-24 19:57 -26.44537 -57.53712 23611 ft 410 kts 353°
2026-04-24 19:58 -26.41686 -57.53683 23407 ft 409 kts 353°
2026-04-24 19:58 -26.38844 -57.53654 23198 ft 408 kts 353°
2026-04-24 19:58 -26.36006 -57.53624 22979 ft 408 kts 353°
2026-04-24 19:58 -26.33144 -57.53597 22443 ft 412 kts 353°
2026-04-24 19:59 -26.30301 -57.53566 21959 ft 408 kts 353°
2026-04-24 19:59 -26.27466 -57.53535 21462 ft 405 kts 354°
2026-04-24 19:59 -26.24658 -57.53504 20977 ft 402 kts 354°
2026-04-24 19:59 -26.21878 -57.53474 20497 ft 398 kts 354°
2026-04-24 20:00 -26.19116 -57.53445 20027 ft 395 kts 355°
2026-04-24 20:00 -26.16376 -57.53417 19563 ft 392 kts 355°
2026-04-24 20:00 -26.13657 -57.53389 19108 ft 388 kts 355°
2026-04-24 20:00 -26.10986 -57.53360 18654 ft 380 kts 355°
2026-04-24 20:01 -26.08370 -57.53332 18186 ft 371 kts 355°
2026-04-24 20:01 -26.05828 -57.53430 17663 ft 360 kts 351°
2026-04-24 20:01 -26.03363 -57.53678 17154 ft 352 kts 349°
2026-04-24 20:01 -26.00954 -57.53966 16652 ft 345 kts 349°
2026-04-24 20:02 -25.99382 -57.54156 16324 ft 341 kts 349°
2026-04-24 20:02 -25.96235 -57.54527 15315 ft 343 kts 350°
2026-04-24 20:02 -25.93841 -57.54800 14519 ft 347 kts 350°
2026-04-24 20:02 -25.91435 -57.55064 13726 ft 348 kts 351°
2026-04-24 20:03 -25.89046 -57.55320 12855 ft 350 kts 351°
2026-04-24 20:03 -25.86621 -57.55576 11975 ft 351 kts 351°
2026-04-24 20:03 -25.84222 -57.55825 11539 ft 339 kts 352°
2026-04-24 20:03 -25.81928 -57.56061 11245 ft 324 kts 352°
2026-04-24 20:04 -25.79729 -57.56287 10969 ft 311 kts 351°
2026-04-24 20:04 -25.77611 -57.56506 10708 ft 300 kts 351°
2026-04-24 20:04 -25.75573 -57.56718 10431 ft 290 kts 351°
2026-04-24 20:04 -25.73595 -57.56923 10167 ft 281 kts 351°
2026-04-24 20:05 -25.71668 -57.57124 9909 ft 276 kts 351°
2026-04-24 20:05 -25.69760 -57.57323 9636 ft 274 kts 351°
2026-04-24 20:05 -25.67870 -57.57521 9372 ft 274 kts 351°
2026-04-24 20:05 -25.65963 -57.57720 9097 ft 277 kts 352°
2026-04-24 20:06 -25.64035 -57.57921 8829 ft 279 kts 352°
2026-04-24 20:06 -25.62109 -57.58121 8542 ft 277 kts 352°
2026-04-24 20:06 -25.60181 -57.58001 8260 ft 283 kts 13°
2026-04-24 20:06 -25.58455 -57.56943 8000 ft 289 kts 39°
2026-04-24 20:07 -25.57605 -57.55799 7816 ft 293 kts 57°
2026-04-24 20:07 -25.56433 -57.53070 7475 ft 292 kts 54°
2026-04-24 20:07 -25.55149 -57.51353 7245 ft 288 kts 43°
2026-04-24 20:07 -25.53773 -57.49786 7014 ft 278 kts 42°
2026-04-24 20:08 -25.52442 -57.48299 6769 ft 267 kts 42°
2026-04-24 20:08 -25.51139 -57.46888 6518 ft 254 kts 35°
2026-04-24 20:08 -25.49611 -57.46100 6256 ft 236 kts 12°
2026-04-24 20:08 -25.48043 -57.45703 5944 ft 228 kts
2026-04-24 20:09 -25.46533 -57.45364 5651 ft 222 kts
2026-04-24 20:09 -25.45022 -57.45014 5360 ft 222 kts
2026-04-24 20:09 -25.43557 -57.44656 5107 ft 206 kts
2026-04-24 20:09 -25.42197 -57.44311 4795 ft 199 kts 10°
2026-04-24 20:10 -25.40876 -57.43968 4490 ft 190 kts 10°
2026-04-24 20:10 -25.39635 -57.43639 4176 ft 177 kts 11°
2026-04-24 20:10 -25.38454 -57.43322 3866 ft 174 kts 11°
2026-04-24 20:10 -25.37260 -57.43000 3599 ft 178 kts 11°
2026-04-24 20:11 -25.36038 -57.42668 3523 ft 185 kts 11°
2026-04-24 20:11 -25.34799 -57.42328 3476 ft 180 kts 12°
2026-04-24 20:11 -25.33595 -57.41995 3488 ft 180 kts 11°
2026-04-24 20:11 -25.32379 -57.41659 3467 ft 179 kts 12°
2026-04-24 20:12 -25.31178 -57.41325 3481 ft 180 kts 12°
2026-04-24 20:12 -25.29961 -57.40987 3476 ft 180 kts 12°
2026-04-24 20:12 -25.28739 -57.40646 3468 ft 182 kts 12°
2026-04-24 20:12 -25.27514 -57.40304 3479 ft 181 kts 12°
2026-04-24 20:13 -25.26302 -57.39965 3467 ft 182 kts 12°
2026-04-24 20:13 -25.25064 -57.39619 3476 ft 182 kts 12°
2026-04-24 20:13 -25.23835 -57.39274 3458 ft 182 kts 12°
2026-04-24 20:13 -25.22613 -57.38932 3477 ft 181 kts 12°
2026-04-24 20:14 -25.21394 -57.38591 3470 ft 181 kts 12°
2026-04-24 20:14 -25.20181 -57.38251 3475 ft 179 kts 12°
2026-04-24 20:14 -25.18970 -57.37912 3467 ft 179 kts 12°
2026-04-24 20:14 -25.17773 -57.37577 3427 ft 181 kts 12°
2026-04-24 20:15 -25.16542 -57.37233 3212 ft 183 kts 12°
2026-04-24 20:15 -25.15318 -57.36890 3050 ft 180 kts 12°
2026-04-24 20:15 -25.14087 -57.36546 2999 ft 182 kts 13°
2026-04-24 20:15 -25.12874 -57.36205 2986 ft 179 kts 13°
2026-04-24 20:16 -25.11661 -57.35866 2984 ft 181 kts 12°
2026-04-24 20:16 -25.10434 -57.35773 2957 ft 177 kts 341°
2026-04-24 20:16 -25.09556 -57.36646 2953 ft 171 kts 295°
2026-04-24 20:16 -25.09414 -57.37904 2741 ft 165 kts 258°
2026-04-24 20:17 -25.09855 -57.39040 2560 ft 159 kts 245°
2026-04-24 20:17 -25.10765 -57.41217 2133 ft 156 kts 245°
2026-04-24 20:17 -25.11231 -57.42319 1972 ft 160 kts 245°
2026-04-24 20:18 -25.11546 -57.43060 1921 ft 162 kts 245°
2026-04-24 20:18 -25.12185 -57.44553 1870 ft 160 kts 245°
2026-04-24 20:18 -25.12657 -57.45651 1874 ft 159 kts 245°
2026-04-24 20:18 -25.13136 -57.46760 1882 ft 160 kts 245°
2026-04-24 20:19 -25.13613 -57.47866 1875 ft 160 kts 245°
2026-04-24 20:19 -25.14171 -57.48922 1813 ft 162 kts 225°
2026-04-24 20:19 -25.15123 -57.49564 1680 ft 163 kts 203°
2026-04-24 20:19 -25.16204 -57.49970 1480 ft 163 kts 198°
2026-04-24 20:20 -25.17280 -57.50276 1257 ft 159 kts 194°
2026-04-24 20:20 -25.18360 -57.50540 1073 ft 156 kts 194°
2026-04-24 20:20 -25.19412 -57.50798 898 ft 157 kts 194°
2026-04-24 20:20 -25.20491 -57.51061 715 ft 160 kts 195°
2026-04-24 20:21 -25.21582 -57.51327 465 ft 157 kts 195°
2026-04-24 20:21 -25.22625 -57.51584 278 ft 149 kts 195°
2026-04-24 20:21 -25.23551 -57.51810 270 ft 115 kts 195°
2026-04-24 20:21 -25.24125 -57.51948 281 ft 47 kts 192°
2026-04-24 20:22 -25.24247 -57.51943 283 ft 9 kts 122°
2026-04-24 20:22 -25.24273 -57.51866 282 ft 0 kts 104°
2026-04-24 20:22 -25.24274 -57.51861 282 ft 0 kts 104°
2026-04-24 20:23 -25.24278 -57.51845 282 ft 12 kts 104°
2026-04-24 20:23 -25.24302 -57.51727 281 ft 13 kts 102°
2026-04-24 20:23 -25.24300 -57.51627 285 ft 13 kts 77°
2026-04-24 20:23 -25.24286 -57.51559 280 ft 6 kts 89°
2026-04-24 20:24 -25.24287 -57.51553 280 ft 4 kts 97°
2026-04-24 20:24 -25.24289 -57.51543 280 ft 0 kts 105°
2026-04-24 20:24 -25.24292 -57.51524 280 ft 8 kts 96°
2026-04-24 20:25 -25.24292 -57.51496 280 ft 0 kts 90°